Weather observations for the past three days for
Alabaster, Shelby County Airport
Imperial (Metric)
Date Time (cdt) Wind (mph) Vis. (mi.) Weather Sky Cond. Temperature (ºF) Relative Humidity Wind Chill (°F) Heat Index (°F) Pressure Precipitation (in)
Air Dwpt 6 hour altimeter (in) sea level (mb) 1 hr 3 hr 6 hr
Max. Min.
12 16:53 Calm 10.00 A Few Clouds FEW065 89.1 62.1 41% 89 29.92 1012.6
12 15:53 Vrbl 3 10.00 Partly Cloudy SCT065 87.1 60.1 40% 87 29.93 1012.9
12 14:53 Calm 10.00 Fair CLR 88 62.1 42% 88 29.94 1013.2
12 13:53 Vrbl 3 10.00 Fair CLR 88 63 43% 89 29.96 1013.8
12 12:53 Calm 10.00 Fair CLR 84.9 62.1 86 69.1 46% 85 29.97 1014.2
12 11:53 Calm 10.00 Fair CLR 84.9 60.1 43% 85 29.98 1014.6
12 10:53 NE 3 10.00 Fair CLR 82 61 49% 83 29.99 1014.9
12 09:53 Vrbl 3 10.00 Fair CLR 80.1 61 52% 81 29.99 1014.9
12 08:53 Vrbl 3 10.00 Fair CLR 75.9 59 56% 78 30 1015.1
12 06:53 Calm 10.00 Fair CLR 69.1 61 69.1 62.1 76% 29.97 1014.3
12 05:53 Calm 10.00 Fair CLR 62.1 59 90% 29.96 1014.0
12 04:53 Calm 10.00 Fair CLR 63 59 87% 29.95 1013.4
12 03:53 Calm 10.00 Fair CLR 63 59 87% 29.94 1013.2
12 02:53 Calm 10.00 Fair CLR 63 59 87% 29.93 1012.8
12 01:53 Calm 10.00 Fair CLR 64.9 60.1 84% 29.93 1013.0
12 00:53 Calm 10.00 Fair CLR 66 59 82 66 78% 29.94 1013.3
11 23:53 Calm 10.00 Fair CLR 66.9 60.1 79% 29.95 1013.4
11 22:53 Calm 10.00 Fair CLR 69.1 60.1 73% 29.94 1013.2
11 21:53 Calm 10.00 Fair CLR 70 61 73% 29.94 1013.0
11 20:53 Calm 10.00 Fair CLR 72 61 68% 29.93 1012.7
11 19:53 Vrbl 3 10.00 Fair CLR 78.1 59 52% 79 29.92 1012.4
11 18:53 Vrbl 3 10.00 Fair CLR 82 55.9 87.1 82 41% 82 29.9 1011.7
11 17:53 Vrbl 3 10.00 Fair CLR 84 57 40% 83 29.88 1011.2
11 16:53 Vrbl 6 10.00 Fair CLR 84.9 57 39% 84 29.89 1011.4
11 15:53 Calm 10.00 Fair CLR 86 59 40% 85 29.9 1011.6
11 14:53 Vrbl 5 10.00 Fair CLR 84 57.9 41% 83 29.9 1011.9
11 13:53 Vrbl 3 10.00 Fair CLR 84 55.9 38% 83 29.92 1012.3
11 12:53 Vrbl 5 10.00 Fair CLR 82.9 57 84 66.9 41% 82 29.93 1012.9
11 11:53 Calm 10.00 Fair CLR 82 60.1 47% 82 29.94 1013.2
11 10:53 Vrbl 6 10.00 Fair CLR 81 59 47% 81 29.95 1013.3
11 09:53 Calm 10.00 Fair CLR 77 59 54% 79 29.94 1013.3
11 08:53 Calm 10.00 Fair CLR 75.9 60.1 58% 78 29.94 1013.3
11 07:53 Calm 10.00 Fair CLR 72 57.9 61% 29.95 1013.3
11 06:53 Calm 10.00 Fair CLR 66.9 60.1 66.9 62.1 79% 29.95 1013.3
11 05:53 Calm 10.00 Fair CLR 63 57 81% 29.94 1013.1
11 04:53 Calm 10.00 Fair CLR 64 57 78% 29.92 1012.4
11 03:53 Calm 10.00 Fair CLR 64.9 57 76% 29.9 1011.8
11 02:53 Calm 10.00 Fair CLR 64.9 59 81% 29.9 1011.7
11 01:53 Calm 10.00 Fair CLR 66 60.1 81% 29.9 1011.7
11 00:53 Calm 10.00 Fair CLR 66 60.1 82.9 66 81% 29.9 1011.8
10 23:53 Calm 10.00 Fair CLR 69.1 61 76% 29.89 1011.6
10 22:53 Calm 10.00 Fair CLR 69.1 61 76% 29.89 1011.4
10 21:53 Calm 10.00 Fair CLR 71.1 60.1 68% 29.87 1010.8
10 20:53 Calm 10.00 Fair CLR 73.9 59 60% 29.86 1010.4
10 19:53 N 3 10.00 Fair CLR 80.1 54 41% 80 29.84 1009.8
10 18:53 Vrbl 5 10.00 Fair CLR 82.9 55 87.1 82.9 38% 82 29.83 1009.3
10 17:53 Vrbl 5 G 17 10.00 Fair CLR 84.9 57.9 40% 84 29.82 1008.9
10 16:53 Vrbl 5 10.00 Fair CLR 86 59 40% 85 29.82 1009.0
10 15:53 NW 5 10.00 Fair CLR 87.1 57 36% 86 29.83 1009.2
10 14:53 Vrbl 6 10.00 Fair CLR 87.1 55 34% 85 29.85 1010.0
10 13:53 Vrbl 7 10.00 Fair CLR 84.9 55.9 37% 84 29.87 1010.6
10 12:53 Vrbl 5 10.00 Fair CLR 84.9 61 84.9 73.9 45% 85 29.88 1011.1
10 11:53 Calm 10.00 Fair CLR 82 62.1 51% 83 29.89 1011.3
10 10:53 NW 7 10.00 Fair CLR 81 64 57% 83 29.89 1011.2
10 09:53 NE 7 10.00 Fair CLR 80.1 66.9 64% 82 29.89 1011.2
10 08:53 Vrbl 3 10.00 Fair CLR 75.9 68 77% 77 29.89 1011.3
10 07:53 Vrbl 5 10.00 Partly Cloudy SCT035 75 68 79% 76 29.88 1011.2
10 06:53 N 3 10.00 Fair CLR 73.9 68 80.1 73.9 82% 29.86 1010.4
10 05:53 Calm 10.00 A Few Clouds FEW043 75 68 79% 76 29.85 1010.0
10 04:53 Calm 10.00 A Few Clouds FEW060 FEW075 75 69.1 82% 75 29.84 1009.7
10 03:53 Calm 10.00 A Few Clouds FEW050 77 69.1 77% 79 29.84 1009.5
10 02:53 N 3 10.00 Mostly Cloudy BKN055 78.1 69.1 74% 80 29.84 1009.5
10 01:53 N 5 10.00 Fair CLR 79 70 74% 82 29.84 1009.6
10 00:53 N 6 10.00 A Few Clouds FEW048 80.1 70 89.1 79 71% 83 29.84 1009.6
09 23:53 W 3 10.00 Mostly Cloudy FEW049 BKN065 80.1 73 79% 84 29.85 1009.8
09 22:53 NW 3 10.00 Mostly Cloudy BKN055 81 73 77% 86 29.84 1009.6
09 21:53 Calm 10.00 Fair CLR 81 73 77% 86 29.84 1009.5
09 20:53 Calm 10.00 Fair CLR 81 73 77% 86 29.85 1010.0
09 19:53 SW 5 10.00 Fair CLR 86 71.1 61% 92 29.81 1008.7
09 18:53 W 5 10.00 Fair CLR 89.1 70 93.9 89.1 53% 94 29.82 1008.9
09 17:53 W 6 10.00 A Few Clouds FEW060 FEW120 91 68 47% 95 29.83 1009.3
Date Time (cdt) Wind (mph) Vis. (mi.) Weather Sky Cond. Air Dwpt Max. Min. Relative Humidity Wind Chill (°F) Heat Index (°F) altimeter (in) sea level (mb) 1 hr 3 hr 6 hr
6 hour
Temperature (ºF) Pressure Precipitation (in)